Find Starlink 4775

NORAD ID: 53934 Int'l Des: 2022-119 Owner: SPXS Country: US Constellation: starlink operational
LEOCIRCULAR

实时位置

正在加载3D地球...

关于 Starlink 4775

正在加载描述...

即将过境

Passes for default location (London). Set your location on the main map for personalized predictions.

高度历史

Loading altitude history...

两行轨道根数

1 53934U 22119BA 26107.03643947 .00000324 00000-0 38421-4 0 9992
2 53934 53.2164 127.0246 0001484 73.6538 286.4617 15.08838014197849
Epoch: Apr 17, 2026 • Age: 17 hours

当前状态

高度 553.7 km
速度 7.58 km/s
星下点 -40.38°S, 33.18°W
发射日期 Sep 24, 2022
运行时间 3.5 years
类型 internet

技术详情

分类 Payload
质量 305.00 kg
干质量 290.00 kg
总质量 305.00 kg
长度 0.20 m
直径 2.80 m
跨度 9.00 m
形状 Box + pan
制造商 SPXS
平台类型 Starlink
阶段状态 In Orbit
所有者/国家 SPXS/US

Most Searched